This is the latest recevied weather packets stored in our database for station/object N2RDT. If no packets are shown the sender has not sent any weather packets the latest 10 day(s).
| Time | Temp. | Humidity | Pressure | Rain* | Wind** | Luminosity | Snow |
|---|---|---|---|---|---|---|---|
| 1777916317 | 23.33° C | 33% | 1015.5 hPa | 0 mm | - | 949 W/m² | - |
| 1777916014 | 23.89° C | 33% | 1015.7 hPa | 0 mm | - | 950 W/m² | - |
| 1777915711 | 23.89° C | 35% | 1015.7 hPa | 0 mm | - | 947 W/m² | - |
| 1777915408 | 23.89° C | 34% | 1015.8 hPa | 0 mm | - | 949 W/m² | - |
| 1777915104 | 23.33° C | 36% | 1015.9 hPa | 0 mm | - | 950 W/m² | - |
| 1777914801 | 23.33° C | 34% | 1016 hPa | 0 mm | - | 953 W/m² | - |
| 1777914498 | 23.33° C | 36% | 1016.2 hPa | 0 mm | - | 956 W/m² | - |
| 1777914195 | 22.78° C | 40% | 1016.1 hPa | 0 mm | - | 956 W/m² | - |
| 1777913891 | 22.78° C | 40% | 1016.1 hPa | 0 mm | - | 956 W/m² | - |
| 1777913588 | 22.78° C | 35% | 1016.2 hPa | 0 mm | - | 952 W/m² | - |
| 1777913284 | 22.78° C | 38% | 1016.3 hPa | 0 mm | - | 953 W/m² | - |
| 1777912981 | 23.33° C | 35% | 1016.3 hPa | 0 mm | - | 946 W/m² | - |
| 1777912677 | 22.78° C | 41% | 1016.3 hPa | 0 mm | - | 952 W/m² | - |
| 1777912373 | 22.78° C | 36% | 1016.4 hPa | 0 mm | - | 947 W/m² | - |
| 1777912069 | 22.78° C | 40% | 1016.5 hPa | 0 mm | - | 939 W/m² | - |
| 1777911765 | 22.78° C | 42% | 1016.6 hPa | 0 mm | - | 938 W/m² | - |
| 1777911462 | 22.22° C | 42% | 1016.6 hPa | 0 mm | - | 932 W/m² | - |
| 1777911159 | 22.22° C | 41% | 1016.7 hPa | 0 mm | - | 931 W/m² | - |
| 1777910857 | 22.22° C | 46% | 1016.9 hPa | 0 mm | - | 924 W/m² | - |
| 1777910553 | 21.67° C | 45% | 1016.7 hPa | 0 mm | - | 919 W/m² | - |
| 1777910251 | 21.67° C | 45% | 1016.9 hPa | 0 mm | - | 912 W/m² | - |
| 1777909947 | 21.67° C | 47% | 1017 hPa | 0 mm | - | 906 W/m² | - |
| 1777909644 | 21.11° C | 49% | 1017.2 hPa | 0 mm | - | 897 W/m² | - |
| 1777909342 | 20.56° C | 48% | 1017.2 hPa | 0 mm | - | 887 W/m² | - |
| 1777909039 | 21.11° C | 48% | 1016.9 hPa | 0 mm | - | 873 W/m² | - |
* Rain latest hour (hover to see other rain measurements)
** Current wind speed in m/s (hover to see current wind gust speed)